{"data":{"norad_id":43071,"intl_designator":"2017-083B","name":"IRIDIUM 138","alt_names":[],"object_type":"PAYLOAD","status":"ACTIVE","operator":null,"country":"US","launch_date":"2017-12-23","launch_site_code":"AFWTR","launch_vehicle":null,"mission":null,"orbit_class":"UNKNOWN","rcs_meters":null,"size_class":null,"mass_kg":null,"dimensions":null,"purposes":["comms"],"wikipedia_slug":null,"has_3d_model":false,"image_url":null,"decayed_at":null,"tle_current":{"epoch":"2026-09-20T01:29:27.204288Z","epoch_age_seconds":53243,"freshness":"FRESH","line1":"1 43071U 17083B   26263.06212042  .00000028  00000+0  27693-5 0  9991","line2":"2 43071  86.3927 282.0594 0002400  90.9817 269.1653 14.34217499457734","mean_motion":14.34217499,"eccentricity":0.00024,"inclination_deg":86.3927,"raan_deg":282.0594,"arg_perigee_deg":90.9817,"mean_anomaly_deg":269.1653,"bstar":2.7693e-6,"rev_number":45773,"period_min":100.40318159582,"perigee_km":775.95059603957,"apogee_km":779.3853824344,"semimajor_km":7155.804989237,"source":"CELESTRAK","updated_at":"2026-09-20T09:00:36.326536Z"}}}